K4SHP-16 Weather Reports


Display with metric or nautical units.
time (UTC)temp
F
wind
direction
speed
MPH
gust
MPH
rain 1hr
in
rain 24hr
in
rain mn
in
humidity
%
barometer
mb
20260906111803 70 0 0.0 0.0 0.01 0.40 0.01 95 1011.1
20260906110903 69 0 0.0 0.0 0.01 0.40 0.01 95 1011.0
20260906110004 69 0 0.0 0.0 0.01 0.40 0.01 95 1010.7
20260906105403 69 0 0.0 0.0 0.01 0.40 0.01 95 1010.7
20260906104504 69 206 0.0 1.0 0.01 0.40 0.01 95 1010.7
20260906103603 69 0 0.0 0.0 0.00 0.39 0.00 95 1010.7
20260906102703 69 0 0.0 0.0 0.00 0.39 0.00 95 1010.6
20260906101803 70 213 0.0 1.0 0.00 0.39 0.00 95 1010.5
20260906100903 69 217 0.0 1.0 0.00 0.39 0.00 95 1010.4
20260906100024 70 274 0.0 2.0 0.00 0.39 0.00 95 1010.1
20260906095403 69 274 0.0 2.0 0.00 0.39 0.00 95 1010.2
20260906094504 69 22 0.0 1.0 0.00 0.39 0.00 95 1010.2
20260906093603 69 22 0.0 1.0 0.00 0.39 0.00 95 1009.9
20260906092724 69 0 0.0 0.0 0.00 0.39 0.00 95 1010.1
20260906091803 69 0 0.0 0.0 0.00 0.39 0.00 95 1010.0
20260906090903 69 0 0.0 0.0 0.00 0.39 0.00 95 1009.8
20260906090003 69 0 0.0 1.0 0.00 0.39 0.00 95 1009.9
20260906085404 69 0 0.0 1.0 0.00 0.39 0.00 95 1009.9
20260906084525 69 23 0.0 1.0 0.00 0.39 0.00 95 1010.0
20260906083603 69 18 0.0 1.0 0.00 0.39 0.00 95 1010.0
20260906082703 69 4 0.0 1.0 0.00 0.39 0.00 95 1009.8
20260906081824 69 0 0.0 0.0 0.00 0.39 0.00 95 1009.9
20260906080903 69 4 0.0 1.0 0.00 0.39 0.00 95 1010.0
20260906080024 70 10 0.0 1.0 0.00 0.39 0.00 95 1009.9
20260906075403 70 21 0.0 1.0 0.00 0.39 0.00 95 1010.0
20260906074524 70 0 0.0 0.0 0.00 0.39 0.00 95 1010.0
20260906073624 70 0 0.0 0.0 0.00 0.39 0.00 95 1010.2
20260906072703 70 134 0.0 1.0 0.00 0.39 0.00 95 1010.2
20260906071803 70 0 0.0 0.0 0.00 0.39 0.00 95 1010.2
20260906070903 70 134 0.0 1.0 0.00 0.39 0.00 95 1010.4
20260906070003 70 0 0.0 0.0 0.00 0.39 0.00 95 1010.3
20260906065424 70 0 0.0 0.0 0.00 0.39 0.00 95 1010.3
20260906064503 70 0 0.0 0.0 0.00 0.39 0.00 95 1010.6
20260906063603 70 0 0.0 0.0 0.00 0.39 0.00 95 1010.5
20260906062703 70 134 0.0 1.0 0.00 0.39 0.00 95 1010.5
20260906061803 70 134 0.0 1.0 0.00 0.39 0.00 95 1010.6
20260906060903 70 0 0.0 0.0 0.00 0.39 0.00 95 1010.5
20260906060003 70 0 0.0 0.0 0.00 0.39 0.00 95 1010.6
20260906055403 70 0 0.0 0.0 0.00 0.39 0.00 95 1010.5
20260906054503 70 0 0.0 0.0 0.00 0.39 0.00 95 1010.5
20260906053603 70 0 0.0 0.0 0.00 0.39 0.00 95 1010.5
20260906052703 71 0 0.0 0.0 0.00 0.39 0.00 95 1010.5
20260906051803 71 0 0.0 0.0 0.00 0.39 0.00 95 1010.6
20260906050903 71 0 0.0 0.0 0.00 0.39 0.00 95 1010.9
20260906050003 71 0 0.0 0.0 0.00 0.39 0.00 95 1011.0
20260906045424 71 0 0.0 0.0 0.00 0.39 0.00 95 1011.1
20260906044503 71 0 0.0 0.0 0.00 0.39 0.00 94 1011.2
20260906043603 71 0 0.0 0.0 0.00 0.39 0.00 94 1011.4
20260906042703 71 0 0.0 0.0 0.00 0.39 0.00 94 1011.3
20260906041803 71 0 0.0 0.0 0.00 0.39 0.00 94 1011.5
20260906040903 71 0 0.0 0.0 0.00 0.39 0.00 94 1011.4
20260906040003 71 0 0.0 0.0 0.00 0.39 0.00 94 1011.3
20260906035424 71 0 0.0 0.0 0.00 0.39 0.39 94 1011.4
20260906034503 71 143 0.0 1.0 0.00 0.39 0.39 94 1011.4
20260906033603 71 143 0.0 1.0 0.00 0.39 0.39 94 1011.5
20260906032703 71 0 0.0 1.0 0.00 0.39 0.39 94 1011.5
20260906031803 71 115 0.0 1.0 0.00 0.39 0.39 94 1011.6
20260906030903 71 0 0.0 1.0 0.00 0.39 0.39 94 1011.7
20260906030024 71 115 0.0 1.0 0.01 0.39 0.39 94 1011.8
20260906025424 71 74 0.0 2.0 0.02 0.39 0.39 94 1011.8
20260906024503 71 78 2.0 5.0 0.02 0.39 0.39 94 1011.8
20260906023603 71 51 2.0 6.0 0.02 0.39 0.39 94 1011.8
20260906022703 72 44 2.0 6.0 0.02 0.39 0.39 94 1011.7
20260906021803 72 81 1.0 6.0 0.02 0.39 0.39 94 1011.4
20260906020903 72 185 1.0 4.0 0.02 0.39 0.39 94 1010.9
20260906020003 72 198 1.0 3.0 0.01 0.38 0.38 94 1011.1
20260906015424 72 357 1.0 3.0 0.00 0.37 0.37 94 1011.4
20260906014503 71 360 0.0 3.0 0.00 0.37 0.37 94 1011.4
20260906013603 71 193 1.0 5.0 0.00 0.37 0.37 94 1011.0
20260906012703 71 191 2.0 5.0 0.00 0.37 0.37 94 1010.6
20260906011803 71 201 0.0 1.0 0.00 0.37 0.37 94 1010.8
20260906010903 71 326 0.0 3.0 0.00 0.37 0.37 94 1010.8
20260906010003 71 18 2.0 8.0 0.00 0.37 0.37 94 1010.8
20260906005424 71 36 3.0 8.0 0.00 0.37 0.37 94 1010.9
20260906004524 71 100 0.0 2.0 0.00 0.37 0.37 94 1010.7
20260906003624 71 169 1.0 4.0 0.00 0.37 0.37 94 1010.7
20260906002724 71 269 0.0 1.0 0.00 0.37 0.37 94 1010.7
20260906001803 71 281 0.0 1.0 0.00 0.37 0.37 94 1011.0
20260906000903 71 266 0.0 1.0 0.00 0.37 0.37 94 1010.9
20260906000003 71 201 0.0 1.0 0.00 0.37 0.37 94 1010.7
20260905235403 71 147 1.0 4.0 0.00 0.37 0.37 94 1010.4
20260905234524 71 109 1.0 6.0 0.00 0.37 0.37 94 1010.3
20260905233624 71 50 1.0 6.0 0.00 0.37 0.37 93 1010.2
20260905232703 71 0 0.0 0.0 0.00 0.37 0.37 94 1009.9
20260905231803 71 332 0.0 1.0 0.02 0.37 0.37 94 1010.4
20260905230903 70 206 1.0 5.0 0.36 0.37 0.37 93 1011.2
20260905230003 70 182 1.0 4.0 0.37 0.37 0.37 93 1011.5
20260905225424 70 256 0.0 1.0 0.37 0.37 0.37 93 1011.4
20260905224503 70 183 2.0 4.0 0.37 0.37 0.37 92 1011.3
20260905223603 70 127 1.0 4.0 0.37 0.37 0.37 91 1011.1
20260905222703 70 303 1.0 13.0 0.37 0.37 0.37 90 1010.8
20260905221803 73 8 9.0 20.0 0.35 0.35 0.35 82 1010.6
20260905220903 84 357 11.0 23.0 0.01 0.01 0.01 73 1011.3
20260905220003 90 353 2.0 21.0 0.00 0.00 0.00 76 1010.7
20260905215403 92 310 0.0 1.0 0.00 0.00 0.00 74 1009.6
20260905214503 93 196 0.0 3.0 0.00 0.00 0.00 72 1008.2
20260905213603 94 0 0.0 0.0 0.00 0.00 0.00 72 1008.8
20260905212703 94 0 0.0 0.0 0.00 0.00 0.00 70 1009.1
20260905211803 96 153 1.0 3.0 0.00 0.00 0.00 69 1009.5
20260905210903 97 171 0.0 3.0 0.00 0.00 0.00 67 1009.4
20260905210024 98 178 1.0 4.0 0.00 0.00 0.00 63 1009.2
20260905205403 98 154 1.0 5.0 0.00 0.00 0.00 63 1009.3
20260905204503 98 194 1.0 5.0 0.00 0.00 0.00 63 1009.1
20260905203603 99 188 1.0 3.0 0.00 0.00 0.00 62 1009.1
20260905202703 100 156 0.0 3.0 0.00 0.00 0.00 63 1009.0
20260905201803 99 190 2.0 5.0 0.00 0.00 0.00 66 1008.8
20260905200903 99 182 1.0 4.0 0.00 0.00 0.00 64 1009.0
20260905200024 99 167 1.0 4.0 0.00 0.00 0.00 60 1009.3
20260905195403 99 169 1.0 4.0 0.00 0.00 0.00 61 1009.3
20260905194503 98 164 1.0 4.0 0.00 0.00 0.00 63 1009.2
20260905193603 98 12 1.0 4.0 0.00 0.00 0.00 60 1009.3
20260905192703 98 213 1.0 3.0 0.00 0.00 0.00 62 1009.4
20260905191803 99 75 0.0 3.0 0.00 0.00 0.00 59 1009.6
20260905190903 99 169 0.0 2.0 0.00 0.00 0.00 62 1009.6
20260905190003 98 132 1.0 5.0 0.00 0.00 0.00 64 1009.8
20260905185424 98 125 1.0 8.0 0.00 0.00 0.00 63 1010.0
20260905184503 99 268 0.0 1.0 0.00 0.00 0.00 63 1010.3
20260905183624 99 288 0.0 3.0 0.00 0.00 0.00 65 1010.5
20260905182703 98 170 1.0 6.0 0.00 0.00 0.00 63 1010.6
20260905181824 98 156 1.0 4.0 0.00 0.00 0.00 64 1010.8
20260905180903 97 19 1.0 4.0 0.00 0.00 0.00 67 1010.9
20260905180003 97 344 1.0 7.0 0.00 0.00 0.00 67 1011.0
20260905175403 97 282 1.0 4.0 0.00 0.00 0.00 69 1011.2
20260905174524 97 258 0.0 2.0 0.00 0.00 0.00 65 1011.3
20260905173603 96 336 0.0 2.0 0.00 0.00 0.00 69 1011.5
20260905172724 96 3 1.0 4.0 0.00 0.00 0.00 70 1011.5
20260905171803 95 24 1.0 5.0 0.00 0.00 0.00 68 1011.6
20260905170903 95 8 1.0 6.0 0.00 0.00 0.00 70 1011.6
20260905170003 96 157 1.0 4.0 0.00 0.00 0.00 70 1011.8
20260905165403 95 144 1.0 4.0 0.00 0.00 0.00 70 1011.8
20260905164503 95 170 0.0 5.0 0.00 0.00 0.00 70 1012.1
20260905163603 95 240 1.0 2.0 0.00 0.00 0.00 69 1012.2
20260905162703 94 54 1.0 4.0 0.00 0.00 0.00 71 1012.3
20260905161803 94 188 1.0 4.0 0.00 0.00 0.00 73 1012.4
20260905160924 93 73 1.0 7.0 0.00 0.00 0.00 74 1012.4
20260905160003 92 18 2.0 6.0 0.00 0.00 0.00 72 1012.4
20260905155403 92 4 1.0 6.0 0.00 0.00 0.00 74 1012.4
20260905154503 92 27 1.0 3.0 0.00 0.00 0.00 76 1012.6
20260905153603 92 114 1.0 3.0 0.00 0.00 0.00 74 1012.7
20260905152703 92 30 1.0 6.0 0.00 0.00 0.00 75 1012.8
20260905151824 92 144 1.0 5.0 0.00 0.00 0.00 77 1012.9
20260905150903 92 173 1.0 3.0 0.00 0.00 0.00 77 1012.8
20260905150003 91 174 1.0 5.0 0.00 0.00 0.00 77 1013.1
20260905145403 91 159 0.0 5.0 0.00 0.00 0.00 77 1013.1
20260905144503 90 300 0.0 1.0 0.00 0.00 0.00 79 1013.2
20260905143603 89 7 1.0 4.0 0.00 0.00 0.00 80 1013.3
20260905142703 89 118 1.0 6.0 0.00 0.00 0.00 79 1013.3
20260905141803 88 297 0.0 3.0 0.00 0.00 0.00 81 1013.2
20260905140903 88 353 0.0 4.0 0.00 0.00 0.00 83 1013.3
20260905140024 88 306 0.0 2.0 0.00 0.00 0.00 82 1013.2
20260905135403 88 293 0.0 2.0 0.00 0.00 0.00 82 1013.3
20260905134503 87 307 0.0 2.0 0.00 0.00 0.00 83 1013.3
20260905133603 87 112 0.0 2.0 0.00 0.00 0.00 83 1013.3
20260905132703 86 126 0.0 3.0 0.00 0.00 0.00 85 1013.4
20260905131803 85 89 0.0 3.0 0.00 0.00 0.00 86 1013.4
20260905130903 84 60 0.0 3.0 0.00 0.00 0.00 87 1013.7
20260905130003 83 320 0.0 1.0 0.00 0.00 0.00 88 1013.6
20260905125403 82 332 1.0 6.0 0.00 0.00 0.00 89 1013.6
20260905124503 82 73 0.0 4.0 0.00 0.00 0.00 89 1013.7
20260905123603 82 271 0.0 1.0 0.00 0.00 0.00 90 1013.5
20260905122703 81 67 0.0 2.0 0.00 0.00 0.00 92 1013.5
20260905121802 80 233 0.0 1.0 0.00 0.00 0.00 92 1013.4
20260905120903 79 41 0.0 4.0 0.00 0.00 0.00 93 1013.3
20260905120003 78 214 0.0 1.0 0.00 0.00 0.00 93 1013.0
20260905115403 78 133 0.0 1.0 0.00 0.00 0.00 94 1013.0
20260905114502 78 0 0.0 0.0 0.00 0.00 0.00 94 1012.9
20260905113603 77 145 0.0 1.0 0.00 0.00 0.00 94 1012.9
20260905112703 77 0 0.0 0.0 0.00 0.00 0.00 94 1012.8